KC2YYF Weather Reports


time (UTC)temp
C
wind
direction
speed
KPH
gust
KPH
rain 1hr
cm
rain 24hr
cm
rain mn
cm
humidity
%
barometer
mb
20260504081542 5 290 1.6 11.3 0.00 0.00 0.00 64 1012.1
20260504050110 5 0 0.0 6.4 0.00 0.00 0.00 65 1011.6
20260504044541 6 0 0.0 6.4 0.00 0.00 0.00 62 1011.5
20260504043041 6 0 1.6 4.8 0.00 0.00 0.00 57 1011.3
20260504041541 6 310 1.6 4.8 0.00 0.00 0.00 56 1011.4
20260504040042 6 326 1.6 4.8 0.00 0.00 0.00 55 1011.1
20260504034546 7 310 1.6 4.8 0.00 0.00 0.00 54 1011.1
20260504033045 7 308 0.0 4.8 0.00 0.00 0.00 53 1011.1
20260504031601 7 292 1.6 4.8 0.00 0.00 0.00 52 1011.2
20260504030043 7 328 1.6 4.8 0.00 0.00 0.00 52 1011.2
20260504024540 8 334 1.6 9.7 0.00 0.00 0.00 51 1011.2
20260504023036 8 340 0.0 6.4 0.00 0.00 0.00 50 1011.4
20260504021543 8 302 1.6 4.8 0.00 0.00 0.00 50 1011.4
20260504020042 8 0 0.0 4.8 0.00 0.00 0.00 49 1011.4
20260504014543 8 0 0.0 4.8 0.00 0.00 0.00 49 1011.4
20260504013041 8 0 0.0 0.0 0.00 0.00 0.00 49 1011.2
20260504011537 8 309 0.0 4.8 0.00 0.00 0.00 48 1011.2
20260504010042 8 0 0.0 4.8 0.00 0.00 0.00 47 1011.1
20260504004543 9 288 0.0 3.2 0.00 0.00 0.00 47 1010.9
20260504003046 9 0 0.0 4.8 0.00 0.00 0.00 47 1010.8
20260504001556 10 288 1.6 9.7 0.00 0.00 0.00 46 1010.6
20260504000040 10 270 3.2 12.9 0.00 0.00 0.00 45 1010.3
20260503234536 10 319 3.2 9.7 0.00 0.00 0.00 44 1010.1
20260503233043 11 252 1.6 16.1 0.00 0.00 0.00 43 1010.1
20260503231548 11 325 1.6 12.9 0.00 0.00 0.00 40 1010.1
20260503230041 11 250 4.8 16.1 0.00 0.00 0.00 39 1009.9
20260503224538 11 70 3.2 16.1 0.00 0.00 0.00 37 1009.7
20260503223039 12 275 4.8 14.5 0.00 0.00 0.00 37 1009.6
20260503221536 12 309 3.2 12.9 0.00 0.00 0.00 34 1009.6
20260503220043 12 169 8.0 24.1 0.00 0.00 0.00 34 1009.4
20260503214548 12 0 3.2 12.9 0.00 0.00 0.00 35 1009.5
20260503213103 12 296 4.8 16.1 0.00 0.00 0.00 33 1009.4
20260503211556 12 190 8.0 17.7 0.00 0.00 0.00 33 1009.1
20260503210036 12 248 4.8 22.5 0.00 0.00 0.00 32 1009.3
20260503204558 13 226 9.7 27.4 0.00 0.00 0.00 30 1009.3
20260503203041 12 350 6.4 19.3 0.00 0.00 0.00 33 1009.2
20260503201541 12 162 8.0 20.9 0.00 0.00 0.00 34 1009.6
20260503200040 12 43 4.8 22.5 0.00 0.00 0.00 31 1009.6
20260503194543 12 247 6.4 22.5 0.00 0.00 0.00 32 1009.6
20260503193045 12 182 8.0 37.0 0.00 0.00 0.00 33 1009.9
20260503191556 12 192 6.4 19.3 0.00 0.00 0.00 34 1009.9
20260503190043 12 194 4.8 20.9 0.00 0.00 0.00 33 1010.0
20260503184541 11 44 9.7 22.5 0.00 0.00 0.00 37 1010.1
20260503183046 11 102 8.0 25.7 0.00 0.00 0.00 36 1010.2
20260503181541 11 355 8.0 19.3 0.00 0.00 0.00 35 1010.2
20260503180041 9 77 4.8 19.3 0.00 0.00 0.00 39 1010.5
20260503174550 10 188 6.4 29.0 0.00 0.00 0.00 38 1010.5
20260503173036 10 156 9.7 25.7 0.00 0.00 0.00 39 1010.6
20260503171541 10 177 3.2 24.1 0.00 0.00 0.00 40 1010.7